OCN222 EDDM-DTTJ

Flight info

Callsign OCN222
Flight time N/A
Altitude 37000
Route TURBU6E/08R TURBU Y107 TOBSO DCT BAKOR DCT ROKIB DCT VIC DCT KOPER DCT LUMAV DCT AMTEL DCT PININ DCT TUNEX UG737 CBN UG727 SFX A411 BISKO DCT
Aircraft A320/M-SDE3FGHIRWY/LB1

Departure

Time 2026-05-01 15:25
Airport Munich Airport (EDDM)

Arrival

Time N/A
Airport Djerba Zarzis International Airport (DTTJ)
Time Latitude Longitude Altitude Speed Heading
2026-05-01 14:56 48.35072 11.80820 1486 ft 0 kts 173°
2026-05-01 15:12 48.35078 11.80819 1486 ft 3 kts 174°
2026-05-01 15:12 48.35119 11.80816 1481 ft 3 kts 183°
2026-05-01 15:12 48.35139 11.80819 1474 ft 3 kts 194°
2026-05-01 15:13 48.35166 11.80847 1471 ft 3 kts 263°
2026-05-01 15:15 48.35166 11.80845 1471 ft 1 kts 263°
2026-05-01 15:15 48.35154 11.80692 1476 ft 11 kts 263°
2026-05-01 15:16 48.35138 11.80486 1477 ft 9 kts 263°
2026-05-01 15:16 48.35126 11.80338 1479 ft 6 kts 263°
2026-05-01 15:17 48.35110 11.80202 1480 ft 9 kts 262°
2026-05-01 15:18 48.35082 11.79852 1474 ft 13 kts 264°
2026-05-01 15:18 48.35072 11.79712 1478 ft 14 kts 263°
2026-05-01 15:19 48.34837 11.79559 1486 ft 18 kts 188°
2026-05-01 15:19 48.34765 11.79240 1481 ft 18 kts 262°
2026-05-01 15:19 48.34751 11.79047 1479 ft 19 kts 262°
2026-05-01 15:20 48.34719 11.78640 1478 ft 21 kts 265°
2026-05-01 15:20 48.34703 11.78418 1481 ft 22 kts 263°
2026-05-01 15:20 48.34684 11.78179 1482 ft 24 kts 264°
2026-05-01 15:21 48.34663 11.77927 1485 ft 25 kts 266°
2026-05-01 15:21 48.34644 11.77653 1485 ft 28 kts 263°
2026-05-01 15:21 48.34620 11.77349 1477 ft 31 kts 263°
2026-05-01 15:21 48.34595 11.77016 1480 ft 33 kts 264°
2026-05-01 15:22 48.34541 11.76319 1485 ft 34 kts 264°
2026-05-01 15:22 48.34522 11.76052 1477 ft 24 kts 263°
2026-05-01 15:22 48.34502 11.75812 1480 ft 22 kts 263°
2026-05-01 15:23 48.34485 11.75594 1473 ft 20 kts 263°
2026-05-01 15:23 48.34471 11.75396 1485 ft 18 kts 263°
2026-05-01 15:23 48.34436 11.75233 1481 ft 15 kts 208°
2026-05-01 15:23 48.34339 11.75229 1479 ft 13 kts 170°
2026-05-01 15:24 48.34253 11.75250 1480 ft 12 kts 174°
2026-05-01 15:24 48.34177 11.75261 1485 ft 10 kts 174°
2026-05-01 15:24 48.34098 11.75322 1485 ft 15 kts 116°
2026-05-01 15:24 48.34098 11.75492 1485 ft 24 kts 83°
2026-05-01 15:25 48.34148 11.76123 1483 ft 94 kts 84°
2026-05-01 15:25 48.34249 11.77365 1503 ft 141 kts 82°
2026-05-01 15:25 48.34368 11.78927 1851 ft 157 kts 83°
2026-05-01 15:25 48.34468 11.80603 2389 ft 164 kts 83°
2026-05-01 15:26 48.34575 11.82325 2987 ft 167 kts 85°
2026-05-01 15:26 48.34685 11.84080 3565 ft 173 kts 84°
2026-05-01 15:26 48.34821 11.85946 4043 ft 187 kts 83°
2026-05-01 15:26 48.34984 11.87948 4570 ft 197 kts 84°
2026-05-01 15:27 48.35151 11.89977 5243 ft 199 kts 84°
2026-05-01 15:27 48.35326 11.92110 5715 ft 213 kts 84°
2026-05-01 15:27 48.35386 11.94421 6136 ft 231 kts 102°
2026-05-01 15:28 48.33347 11.98184 7658 ft 245 kts 140°
2026-05-01 15:28 48.31983 11.99775 8472 ft 251 kts 140°
2026-05-01 15:28 48.30573 12.01358 9283 ft 257 kts 146°
2026-05-01 15:29 48.27015 12.02693 10648 ft 285 kts 180°
2026-05-01 15:29 48.24984 12.02550 11173 ft 298 kts 179°
2026-05-01 15:29 48.20758 12.02278 12655 ft 308 kts 179°
2026-05-01 15:30 48.16421 12.02018 14141 ft 316 kts 179°
2026-05-01 15:31 48.07417 12.01438 16803 ft 332 kts 185°
2026-05-01 15:31 48.02755 11.99668 17524 ft 362 kts 193°
2026-05-01 15:32 47.97690 11.97518 18017 ft 393 kts 194°
2026-05-01 15:32 47.92345 11.95327 19083 ft 401 kts 189°
2026-05-01 15:33 47.83934 11.94763 20670 ft 409 kts 178°
2026-05-01 15:34 47.75268 11.94586 22221 ft 421 kts 179°